| time (UTC) | temp C | wind direction | speed KPH | gust KPH | rain 1hr cm | rain 24hr cm | rain mn cm | humidity % | barometer mb |
| 20260505004512 | 18 | 201 | 3.2 | 11.3 | 0.00 | 0.00 | 0.00 | 50 | 1021.0 |
| 20260505003013 | 18 | 200 | 4.8 | 9.7 | 0.00 | 0.00 | 0.00 | 49 | 1021.0 |
| 20260505001509 | 18 | 227 | 1.6 | 9.7 | 0.00 | 0.00 | 0.00 | 48 | 1021.0 |
| 20260505000022 | 19 | 223 | 1.6 | 6.4 | 0.00 | 0.00 | 0.00 | 48 | 1021.0 |
| 20260504234508 | 20 | 252 | 1.6 | 11.3 | 0.00 | 0.00 | 0.00 | 47 | 1021.0 |
| 20260504233010 | 20 | 241 | 3.2 | 14.5 | 0.00 | 0.00 | 0.00 | 46 | 1021.0 |
| 20260504231521 | 20 | 244 | 3.2 | 14.5 | 0.00 | 0.00 | 0.00 | 45 | 1021.0 |
| 20260504230006 | 21 | 84 | 4.8 | 16.1 | 0.00 | 0.00 | 0.00 | 44 | 1021.0 |
| 20260504224506 | 21 | 342 | 1.6 | 22.5 | 0.00 | 0.00 | 0.00 | 45 | 1021.0 |
| 20260504223004 | 21 | 202 | 6.4 | 16.1 | 0.00 | 0.00 | 0.00 | 43 | 1021.0 |
| 20260504221505 | 22 | 143 | 3.2 | 17.7 | 0.00 | 0.00 | 0.00 | 42 | 1021.0 |
| 20260504220007 | 22 | 302 | 9.7 | 19.3 | 0.00 | 0.00 | 0.00 | 43 | 1021.0 |
| 20260504214502 | 23 | 295 | 9.7 | 17.7 | 0.00 | 0.00 | 0.00 | 40 | 1021.0 |
| 20260504213004 | 22 | 284 | 6.4 | 14.5 | 0.00 | 0.00 | 0.00 | 40 | 1021.0 |
| 20260504211559 | 22 | 265 | 8.0 | 17.7 | 0.00 | 0.00 | 0.00 | 44 | 1021.0 |
| 20260504210110 | 22 | 290 | 17.7 | 27.4 | 0.00 | 0.00 | 0.00 | 40 | 1021.0 |
| 20260504204602 | 22 | 294 | 16.1 | 24.1 | 0.00 | 0.00 | 0.00 | 42 | 1021.0 |
| 20260504203054 | 22 | 277 | 9.7 | 20.9 | 0.00 | 0.00 | 0.00 | 42 | 1021.0 |
| 20260504201554 | 22 | 299 | 11.3 | 20.9 | 0.00 | 0.00 | 0.00 | 43 | 1021.0 |
| 20260504200052 | 22 | 296 | 17.7 | 24.1 | 0.00 | 0.00 | 0.00 | 43 | 1021.0 |
| 20260504194605 | 22 | 311 | 12.9 | 24.1 | 0.00 | 0.00 | 0.00 | 44 | 1021.0 |
| 20260504193047 | 22 | 278 | 8.0 | 22.5 | 0.00 | 0.00 | 0.00 | 42 | 1021.0 |
| 20260504191549 | 21 | 295 | 14.5 | 25.7 | 0.00 | 0.00 | 0.00 | 46 | 1021.0 |
| 20260504184551 | 21 | 295 | 14.5 | 25.7 | 0.00 | 0.00 | 0.00 | 46 | 1021.0 |
| 20260504183041 | 21 | 282 | 19.3 | 29.0 | 0.00 | 0.00 | 0.00 | 43 | 1021.0 |
| 20260504181544 | 20 | 275 | 11.3 | 35.4 | 0.00 | 0.00 | 0.00 | 47 | 1021.0 |
| 20260504174536 | 20 | 279 | 8.0 | 27.4 | 0.00 | 0.00 | 0.00 | 46 | 1021.0 |
| 20260504173038 | 20 | 269 | 14.5 | 25.7 | 0.00 | 0.00 | 0.00 | 45 | 1021.0 |
| 20260504171533 | 20 | 302 | 17.7 | 30.6 | 0.00 | 0.00 | 0.00 | 48 | 1021.0 |
| 20260504150115 | 16 | 312 | 9.7 | 20.9 | 0.00 | 0.00 | 0.00 | 48 | 1021.0 |
| 20260504081514 | 2 | 295 | 0.0 | 0.0 | 0.00 | 0.00 | 0.00 | 84 | 1021.0 |
| 20260504050117 | 5 | 295 | 0.0 | 0.0 | 0.00 | 0.00 | 0.00 | 74 | 1021.0 |
| 20260504044550 | 5 | 295 | 0.0 | 0.0 | 0.00 | 0.00 | 0.00 | 74 | 1021.0 |
| 20260504043057 | 5 | 295 | 0.0 | 0.0 | 0.00 | 0.00 | 0.00 | 72 | 1021.0 |
| 20260504041548 | 5 | 295 | 0.0 | 0.0 | 0.00 | 0.00 | 0.00 | 73 | 1021.0 |
| 20260504040045 | 5 | 295 | 0.0 | 0.0 | 0.00 | 0.00 | 0.00 | 73 | 1021.0 |
| 20260504034550 | 5 | 295 | 0.0 | 0.0 | 0.00 | 0.00 | 0.00 | 72 | 1021.0 |
| 20260504033046 | 5 | 295 | 0.0 | 0.0 | 0.00 | 0.00 | 0.00 | 70 | 1021.0 |
| 20260504031602 | 6 | 295 | 0.0 | 0.0 | 0.00 | 0.00 | 0.00 | 70 | 1021.0 |
| 20260504030044 | 6 | 295 | 0.0 | 0.0 | 0.00 | 0.00 | 0.00 | 68 | 1021.0 |
| 20260504024544 | 6 | 295 | 0.0 | 0.0 | 0.00 | 0.00 | 0.00 | 67 | 1021.0 |
| 20260504023042 | 6 | 295 | 0.0 | 0.0 | 0.00 | 0.00 | 0.00 | 65 | 1021.0 |
| 20260504021541 | 7 | 295 | 0.0 | 0.0 | 0.00 | 0.00 | 0.00 | 64 | 1021.0 |
| 20260504020041 | 7 | 295 | 0.0 | 0.0 | 0.00 | 0.00 | 0.00 | 62 | 1021.0 |
| 20260504014541 | 7 | 295 | 0.0 | 0.0 | 0.00 | 0.00 | 0.00 | 62 | 1021.0 |
| 20260504013040 | 8 | 295 | 0.0 | 0.0 | 0.00 | 0.00 | 0.00 | 62 | 1021.0 |
| 20260504011544 | 8 | 295 | 0.0 | 3.2 | 0.00 | 0.00 | 0.00 | 59 | 1021.0 |
| 20260504010044 | 9 | 296 | 0.0 | 0.0 | 0.00 | 0.00 | 0.00 | 58 | 1021.0 |